Home > Weather > Steinbach > Past weeks

Flag for Canada Past Weather in Steinbach, Manitoba, Canada — Yesterday and Last 2 Weeks

Now
71 °F

Mild.


Feels Like: 77 °F
Forecast: 58 / 72 °F
Wind: 8 mph from Southwest

Location: Winnipeg The Forks Man

Current Time: Aug 24, 2016 at 3:05:52 PM

Latest Report: Aug 24, 2016 at 2:00 PM


Visibility: N/A

Pressure: 29.78 "Hg

Humidity: 48%

Dew Point: 50 °F

Location of SteinbachLocation

Past Weather in Steinbach — Graph

°F

Steinbach Temperature Yesterday

Maximum temperature yesterday: 79 °F (at 5:00 PM)
Minimum temperature yesterday: 65 °F (at 4:00 AM)
Average temperature yesterday: 72 °F

High & Low Weather Summary for the Past Weeks

 TemperatureHumidityPressure
High87 °F (Aug 17, 6:00 PM)94% (Aug 12, 7:00 AM)30.02 "Hg (Aug 12, 7:00 AM)
Low53 °F (Aug 21, 6:00 AM)28% (Aug 18, 5:00 PM)29.59 "Hg (Aug 23, 7:00 PM)
Average69 °F67%29.86 "Hg
* Reported Aug 9 1:00 PM — Aug 24 1:00 PM, Steinbach, Weather by CustomWeather, © 2016

Note: Actual official high and low records may vary slightly from our data, if they occured in-between our weather recording intervals... More about our weather records

Advertising

Steinbach Weather History for the Previous 24 Hours

Scroll right to see more
 ConditionsComfort  
Time TempWeatherWind HumidityBarometerVisibility
1:00 PM
Wed, Aug 24
71 °FMild.5 mph50%29.78 "HgN/A
12:00 PM69 °FMild.7 mph51%29.77 "HgN/A
11:00 AM67 °FMild.7 mph58%29.76 "HgN/A
10:00 AM64 °FMild.6 mph68%29.74 "HgN/A
9:00 AM65 °FMild.6 mph63%29.73 "HgN/A
8:00 AM62 °FMild.5 mph67%29.73 "HgN/A
7:00 AM59 °FCool.3 mph84%29.74 "HgN/A
6:00 AM62 °FMild.3 mph87%29.71 "HgN/A
5:00 AM64 °FMild.3 mph93%29.70 "HgN/A
4:00 AM66 °FMild.3 mph88%29.71 "HgN/A
3:00 AM66 °FMild.2 mph89%29.71 "HgN/A
2:00 AM66 °FMild.3 mph89%29.70 "HgN/A
1:00 AM67 °FMild.3 mph88%29.70 "HgN/A
12:00 AM67 °FMild.5 mph88%29.71 "HgN/A
11:00 PM
Tue, Aug 23
67 °FMild.3 mph90%29.68 "HgN/A
10:00 PM71 °FMild.2 mph86%29.63 "HgN/A
9:00 PM73 °FMild.3 mph84%29.63 "HgN/A
8:00 PM75 °FMild.2 mph80%29.59 "HgN/A
7:00 PM79 °FWarm.1 mph68%29.59 "HgN/A
6:00 PM79 °FWarm.2 mph65%29.61 "HgN/A
5:00 PM79 °FWarm.2 mph63%29.63 "HgN/A
4:00 PM78 °FWarm.2 mph65%29.64 "HgN/A
3:00 PM79 °FWarm.3 mph65%29.63 "HgN/A
Weather by CustomWeather, © 2016

See weather overviewHow to use our weather pages